When you browse on this site, cookies collect data to enhance your experience and personalize the content and advertising you see.
Visit our Privacy Policy to learn more. By continuing to use the site, you agree to this use of cookies and data.
  • En España
  • Lista de países
  • Para 7 días
  • Temperatura del agua
  • Mapa Satelital
  • El tiempo en el mapa
  • Informadores
  • user-avatar
    Iniciar sesión

    Tiempo cada hora Bylniki

    Hoy, 18 Julio, Jueves

    Tiempo Temperatura Precipitaciones Viento Presión Humedad
    00:00 +13°C° 0.1 mm 1 mps 732 mmHg 88%
    01:00 +13°C° 0.1 mm 1 mps 732 mmHg 89%
    02:00 +12°C° 0 mm 1 mps 732 mmHg 93%
    03:00 +12°C° 0.3 mm 1 mps 732 mmHg 94%
    04:00 +12°C° 0.3 mm 1 mps 732 mmHg 96%
    05:00 +12°C° 0.3 mm 1 mps 732 mmHg 97%
    06:00 +13°C° 0.6 mm 1 mps 731 mmHg 96%
    07:00 +13°C° 0.6 mm 2 mps 731 mmHg 96%
    08:00 +14°C° 0.6 mm 2 mps 731 mmHg 95%
    09:00 +13°C° 0.3 mm 3 mps 731 mmHg 94%
    10:00 +13°C° 0.3 mm 3 mps 731 mmHg 93%
    11:00 +14°C° 0.3 mm 4 mps 731 mmHg 92%
    12:00 +14°C° 0.2 mm 4 mps 731 mmHg 92%
    13:00 +14°C° 0.2 mm 5 mps 731 mmHg 91%
    14:00 +14°C° 0.2 mm 5 mps 731 mmHg 90%
    15:00 +13°C° 0.2 mm 5 mps 731 mmHg 92%
    16:00 +13°C° 0.2 mm 4 mps 731 mmHg 94%
    17:00 +12°C° 0.2 mm 4 mps 731 mmHg 96%
    18:00 +12°C° 0.2 mm 4 mps 731 mmHg 96%
    19:00 +12°C° 0.2 mm 4 mps 731 mmHg 97%
    20:00 +12°C° 0.2 mm 4 mps 731 mmHg 97%
    21:00 +12°C° 0.2 mm 4 mps 731 mmHg 97%
    22:00 +12°C° 0.2 mm 4 mps 731 mmHg 97%
    23:00 +12°C° 0.2 mm 3 mps 731 mmHg 98%

    Mañana, 19 Julio, Viernes

    Tiempo Temperatura Precipitaciones Viento Presión Humedad
    00:00 +12°C° 1 mm 4 mps 731 mmHg 98%
    01:00 +13°C° 1 mm 4 mps 731 mmHg 98%
    02:00 +13°C° 1 mm 4 mps 732 mmHg 98%
    03:00 +13°C° 0.4 mm 4 mps 732 mmHg 97%
    04:00 +13°C° 0.4 mm 4 mps 732 mmHg 97%
    05:00 +13°C° 0.4 mm 5 mps 732 mmHg 97%
    06:00 +13°C° 0.4 mm 5 mps 732 mmHg 97%
    07:00 +14°C° 0.4 mm 5 mps 733 mmHg 96%
    08:00 +14°C° 0.4 mm 5 mps 733 mmHg 96%
    09:00 +14°C° 0.4 mm 5 mps 733 mmHg 95%
    10:00 +14°C° 0.4 mm 5 mps 734 mmHg 94%
    11:00 +14°C° 0.4 mm 5 mps 734 mmHg 93%
    12:00 +15°C° 0.1 mm 6 mps 734 mmHg 90%
    13:00 +16°C° 0.1 mm 6 mps 735 mmHg 86%
    14:00 +16°C° 0.1 mm 6 mps 735 mmHg 82%
    15:00 +17°C° 0 mm 6 mps 735 mmHg 81%
    16:00 +17°C° 0 mm 6 mps 736 mmHg 79%
    17:00 +17°C° 0 mm 6 mps 736 mmHg 77%
    18:00 +16°C° 0 mm 5 mps 736 mmHg 81%
    19:00 +15°C° 0 mm 4 mps 736 mmHg 86%
    20:00 +14°C° 0 mm 3 mps 737 mmHg 90%
    21:00 +13°C° 0 mm 3 mps 737 mmHg 90%
    22:00 +13°C° 0 mm 3 mps 737 mmHg 89%
    23:00 +13°C° 0 mm 4 mps 737 mmHg 89%

    Pasado mañana, 20 Julio, Sábado

    Tiempo Temperatura Precipitaciones Viento Presión Humedad
    00:00 +13°C° 0 mm 4 mps 738 mmHg 90%
    01:00 +12°C° 0 mm 4 mps 738 mmHg 90%
    02:00 +12°C° 0 mm 4 mps 738 mmHg 91%
    03:00 +12°C° 0 mm 4 mps 738 mmHg 90%
    04:00 +12°C° 0 mm 4 mps 738 mmHg 90%
    05:00 +13°C° 0 mm 4 mps 739 mmHg 90%
    06:00 +14°C° 0 mm 4 mps 739 mmHg 87%
    07:00 +15°C° 0 mm 4 mps 739 mmHg 83%
    08:00 +17°C° 0 mm 4 mps 739 mmHg 80%
    09:00 +18°C° 0.1 mm 4 mps 740 mmHg 75%
    10:00 +20°C° 0.1 mm 5 mps 740 mmHg 69%
    11:00 +21°C° 0.1 mm 5 mps 740 mmHg 64%
    12:00 +21°C° 0 mm 5 mps 740 mmHg 64%
    13:00 +22°C° 0 mm 5 mps 741 mmHg 63%
    14:00 +22°C° 0 mm 5 mps 741 mmHg 63%
    15:00 +22°C° 0 mm 5 mps 741 mmHg 65%
    16:00 +22°C° 0 mm 5 mps 741 mmHg 66%
    17:00 +22°C° 0 mm 4 mps 741 mmHg 68%
    18:00 +20°C° 0.1 mm 4 mps 741 mmHg 75%
    19:00 +18°C° 0.1 mm 3 mps 741 mmHg 81%
    20:00 +17°C° 0.1 mm 3 mps 741 mmHg 88%
    21:00 +16°C° 0 mm 3 mps 742 mmHg 90%
    22:00 +14°C° 0 mm 3 mps 742 mmHg 91%
    23:00 +14°C° 0 mm 2 mps 742 mmHg 93%

    21 Julio, Domingo

    Tiempo Temperatura Precipitaciones Viento Presión Humedad
    00:00 +14°C° 0 mm 2 mps 742 mmHg 93%
    01:00 +14°C° 0 mm 2 mps 742 mmHg 93%
    02:00 +13°C° 0 mm 2 mps 742 mmHg 93%
    03:00 +13°C° 0 mm 2 mps 742 mmHg 92%
    04:00 +13°C° 0 mm 2 mps 742 mmHg 92%
    05:00 +13°C° 0 mm 2 mps 742 mmHg 91%
    06:00 +15°C° 0 mm 2 mps 743 mmHg 86%
    07:00 +17°C° 0 mm 2 mps 743 mmHg 80%
    08:00 +19°C° 0 mm 2 mps 743 mmHg 74%
    09:00 +20°C° 0 mm 2 mps 743 mmHg 70%
    10:00 +21°C° 0 mm 3 mps 743 mmHg 65%
    11:00 +24°C° 0 mm 3 mps 743 mmHg 61%
    12:00 +24°C° 0 mm 3 mps 743 mmHg 60%
    13:00 +25°C° 0 mm 3 mps 743 mmHg 58%
    14:00 +25°C° 0 mm 3 mps 742 mmHg 57%
    15:00 +25°C° 0 mm 3 mps 742 mmHg 60%
    16:00 +25°C° 0 mm 2 mps 742 mmHg 62%
    17:00 +24°C° 0 mm 2 mps 742 mmHg 65%
    18:00 +23°C° 0 mm 2 mps 742 mmHg 71%
    19:00 +20°C° 0 mm 2 mps 742 mmHg 78%
    20:00 +19°C° 0 mm 1 mps 742 mmHg 84%
    21:00 +18°C° 0 mm 1 mps 742 mmHg 86%
    22:00 +18°C° 0 mm 1 mps 741 mmHg 87%
    23:00 +16°C° 0 mm 1 mps 741 mmHg 88%

    22 Julio, Lunes

    Tiempo Temperatura Precipitaciones Viento Presión Humedad
    00:00 +16°C° 0 mm 1 mps 741 mmHg 89%
    01:00 +15°C° 0 mm 1 mps 741 mmHg 91%
    02:00 +15°C° 0 mm 1 mps 741 mmHg 92%
    03:00 +15°C° 0 mm 1 mps 741 mmHg 92%
    04:00 +15°C° 0 mm 2 mps 740 mmHg 91%
    05:00 +15°C° 0 mm 2 mps 740 mmHg 91%
    06:00 +17°C° 0 mm 2 mps 740 mmHg 87%
    07:00 +18°C° 0 mm 2 mps 740 mmHg 83%
    08:00 +20°C° 0 mm 2 mps 740 mmHg 79%
    09:00 +21°C° 0.6 mm 2 mps 740 mmHg 78%
    10:00 +21°C° 0.6 mm 2 mps 740 mmHg 77%
    11:00 +23°C° 0.6 mm 2 mps 740 mmHg 76%
    12:00 +21°C° 0.5 mm 2 mps 740 mmHg 81%
    13:00 +21°C° 0.5 mm 1 mps 740 mmHg 85%
    14:00 +21°C° 0.5 mm 1 mps 739 mmHg 90%
    15:00 +20°C° 0.1 mm 1 mps 739 mmHg 90%
    16:00 +20°C° 0.1 mm 1 mps 739 mmHg 91%
    17:00 +19°C° 0.1 mm 1 mps 739 mmHg 91%
    18:00 +19°C° 0 mm 1 mps 739 mmHg 91%
    19:00 +16°C° 0 mm 0 mps 739 mmHg 91%
    20:00 +16°C° 0 mm 0 mps 739 mmHg 90%
    21:00 +18°C° 0 mm 1 mps 739 mmHg 91%
    22:00 +16°C° 0 mm 1 mps 739 mmHg 92%
    23:00 +16°C° 0 mm 1 mps 739 mmHg 93%

    23 Julio, Martes

    Tiempo Temperatura Precipitaciones Viento Presión Humedad
    00:00 +15°C° 0 mm 1 mps 740 mmHg 94%
    01:00 +15°C° 0 mm 1 mps 740 mmHg 94%
    02:00 +15°C° 0 mm 1 mps 740 mmHg 95%
    03:00 +15°C° 0 mm 1 mps 740 mmHg 95%
    04:00 +15°C° 0 mm 2 mps 740 mmHg 96%
    05:00 +15°C° 0 mm 2 mps 740 mmHg 97%
    06:00 +16°C° 0 mm 2 mps 740 mmHg 92%
    07:00 +18°C° 0 mm 2 mps 740 mmHg 87%
    08:00 +19°C° 0 mm 2 mps 740 mmHg 83%
    09:00 +21°C° 0 mm 3 mps 741 mmHg 74%
    10:00 +22°C° 0 mm 3 mps 741 mmHg 65%
    11:00 +24°C° 0 mm 3 mps 741 mmHg 56%
    12:00 +25°C° 0 mm 3 mps 741 mmHg 54%
    13:00 +25°C° 0 mm 3 mps 741 mmHg 53%
    14:00 +25°C° 0 mm 4 mps 740 mmHg 51%
    15:00 +25°C° 0 mm 3 mps 740 mmHg 55%
    16:00 +24°C° 0 mm 3 mps 740 mmHg 59%
    17:00 +24°C° 0 mm 3 mps 740 mmHg 63%
    18:00 +21°C° 0 mm 3 mps 740 mmHg 67%
    19:00 +19°C° 0 mm 3 mps 740 mmHg 71%
    20:00 +17°C° 0 mm 2 mps 740 mmHg 75%
    21:00 +16°C° 0 mm 2 mps 740 mmHg 76%
    22:00 +15°C° 0 mm 2 mps 740 mmHg 77%
    23:00 +15°C° 0 mm 2 mps 740 mmHg 78%
    Mostrar más